AKARI (ASTRO-F) (28939 NORAD) Tracking and Keplerian Element Data

This shows tracking and keplerian element data for the satellite.

Feedback or suggestion? Click here.




ElementValue
Catalog28939
NameAKARI (ASTRO-F)
Epoch Orbit93660
Epoch Day82.87514426
Epoch Year2023
RAAN202.7275
Inclination98.1752
Eccentricity0.002561
Argument of Perigee329.7346
Mean Anonmoly30.2444
Mean Motion15.91215544
Decay Rate0.00535636
L11 28939U 06005A 23082.87514426 .00535636 11393-3 16473-2 0 9995
L22 28939 98.1752 202.7275 0025610 329.7346 30.2444 15.91215544936606



Live tracking and technical data element details for AKARI (ASTRO-F) (NORAD 28939). AKARI (ASTRO-F) can be tracked NOW for your location showing map with azimuth and elevation plus other details from your city location.







IsCatalogInMostPopularTable: catalog: 28939, numindb: 371
Update: records affected: 1



GetName: 28939 AKARI (ASTRO-F)

Hit Count: updated at: Fri, 19 Apr 2024 11:37:04 GMT